Location: Ariel
(45.9570°N, 122.5700°W)
Time: 05:40:23
(UTC-07:00)

Vanguard 3 - Pass Details

Date: 01 September 2019
Orbit: 508 x 3263 km, 33.4° (Epoch: 14 September)

Event Time Altitude Azimuth Distance (km) Brightness Sun altitude
Rises 14:03:03 0° 224° (SW) 7,061 12.5 50.5°
Reaches altitude 10° 14:08:52 10° 216° (SW) 5,789 12.4 50.1°
Maximum altitude 14:22:26 32° 163° (SSE) 3,341 11.3 49.1°
Drops below altitude 10° 14:31:30 10° 105° (ESE) 3,849 10.6 48.3°
Sets 14:34:28 0° 95° (E) 4,485 10.8 48.1°
